Flag for U.S.A. Weather past 2 weeks in Clovis, New Mexico, U.S.A.

Now
56 °F

Passing clouds.


Feels Like: 52 °F
Forecast: 35 / 60 °F
Wind: 17 mph from Northeast

Location: Cannon Air Force Base / Clovis

Current Time: Apr 28, 2015 at 12:32:21 PM

Latest Report: Apr 28, 2015 at 11:58 AM


Visibility: 10 mi

Pressure: 30.21 "Hg

Humidity: 41%

Dew point: 32 °F

Location of ClovisLocation

Historic Weather in Clovis — Graph

°F

Clovis temperature yesterday

Maximum temperature yesterday: 48 °F (at 12:58 AM)
Minimum temperature yesterday: 38 °F (at 7:58 PM)
Average temperature yesterday: 42 °F

Past Weeks' High & Low Weather Summary

 TemperatureHumidityPressure
High81 °F (Apr 22, 4:58 PM)100% (Apr 23, 2:48 AM)30.26 "Hg (Apr 23, 2:48 AM)
Low34 °F (Apr 14, 5:58 AM)10% (Apr 17, 3:58 PM)29.57 "Hg (Apr 26, 3:58 PM)
Average57 °F47%29.84 "Hg
* Reported Apr 13 10:48 AM — Apr 28 10:58 AM, Clovis, Weather by CustomWeather, © 2015

Note: Actual official high and low records may vary slightly from our data, if they occured in-between our weather recording intervals... More about our weather records

Advertising

Clovis weather history for previous 24 hours

 ConditionsComfort  
Time TempWeatherWind HumidityBarometerVisibility
10:58 AM
Tue, Apr 28
53 °FSunny.22 mph47%30.24 "Hg10 mi
9:58 AM51 °FSunny.22 mph53%30.23 "Hg10 mi
8:58 AM48 °FSunny.18 mph59%30.25 "Hg10 mi
7:58 AM45 °FPassing clouds.17 mph71%30.25 "Hg10 mi
6:58 AM40 °FClear.13 mph82%30.24 "Hg10 mi
5:58 AM38 °FPassing clouds.10 mph88%30.23 "Hg10 mi
4:58 AM38 °FClear.7 mph89%30.20 "Hg10 mi
3:58 AM38 °FPassing clouds.10 mph92%30.20 "Hg10 mi
2:58 AM38 °FPassing clouds.15 mph92%30.18 "Hg10 mi
1:58 AM38 °FClear.14 mph91%30.18 "Hg10 mi
12:58 AM39 °FPassing clouds.25 mph89%30.18 "Hg10 mi
11:58 PM
Mon, Apr 27
39 °FOvercast.24 mph89%30.20 "Hg10 mi
10:58 PM39 °FMostly cloudy.18 mph87%30.19 "Hg10 mi
9:58 PM39 °FPassing clouds.22 mph90%30.16 "Hg10 mi
8:58 PM39 °FLight rain. Passing clouds.24 mph91%30.13 "Hg10 mi
7:58 PM38 °FLight rain. Scattered clouds.28 mph90%30.10 "Hg10 mi
6:58 PM39 °FLight rain. Partly sunny.26 mph89%30.06 "Hg10 mi
5:58 PM40 °FLight rain. Mostly cloudy.22 mph89%30.03 "Hg10 mi
4:58 PM40 °FLight rain. Partly sunny.32 mph93%30.01 "Hg10 mi
3:58 PM40 °FLight rain. Mostly cloudy.26 mph93%29.98 "Hg8 mi
2:58 PM40 °FLight rain. Overcast.24 mph92%29.98 "Hg8 mi
1:58 PM41 °FLight rain. Mostly cloudy.26 mph91%29.96 "Hg9 mi
12:58 PM41 °FLight rain. Partly sunny.26 mph90%29.93 "Hg10 mi
Weather by CustomWeather, © 2015

See weather overviewHow to use our weather pages